User: anonymous   Login
Location: ???????
(54.9996°N, 37.9529°E)
Time: 22:11:41
(UTC+00:00)
Language:

COSMOS 2251 DEB - Orbit

View from above orbital plane
View from above orbital plane
View from above satellite
View from above satellite

Ground track
Ground track

The orbit data is extracted from the following two-line orbital elements,

1 34439U 93036SG  24259.23296644  .00231250  00000-0  94496-2 0  9999
2 34439  74.0339 348.2656 0031924 117.2917 243.1539 15.22840255829293
Epoch (UTC): 15 September 2024 05:35:28
Eccentricity: 0.0031924
inclination: 74.0339°
perigee height: 475 km
apogee height: 519 km
right ascension of ascending node: 348.2656°
argument of perigee: 117.2917°
revolutions per day: 15.22840255
mean anomaly at epoch: 243.1539°
orbit number at epoch: 82929

The dashed part of the orbit path shows where the satellite is in the earth's shadow,  

DLR